This demonstration page uses our WeatherBlox Daily Observations layout. Learn more.

Hourly Observations for August 19, 2017

Temp ( °F °C ) Dew Point ( °F °C ) Humidity (%) Winds ( mph kmh ) Pressure ( in mb ) Visibility ( mi km ) Precip ( " mm )
12:15 am 00:15 Clear 65 18.5 58 14.5 78 78 SSE 3 6 29.94 1014 10 16.09344 0 0
12:35 am 00:35 Clear 64 17.5 58 14.2 81 81 Calm 29.97 1015 10 16.09344 0 0
12:55 am 00:55 Clear 64 17.7 59 14.8 83 83 Calm 29.97 1015 10 16.09344 0 0
1:15 am 01:15 Clear 66 19.1 57 14.1 73 73 SSW 5 7 29.97 1015 10 16.09344 0 0
1:35 am 01:35 Clear 64 17.6 56 13.3 76 76 Calm 29.94 1014 10 16.09344 0 0
1:55 am 01:55 Clear 60 15.8 57 13.9 89 89 NNE 8 13 30 1016 10 16.09344 0 0
2:15 am 02:15 Clear 61 16 58 14.3 90 90 NE 6 9 30 1016 10 16.09344 0 0
2:35 am 02:35 Clear 60 15.7 58 14.2 91 91 NE 5 7 30 1016 10 16.09344 0 0
2:55 am 02:55 Clear 62 16.5 59 14.8 90 90 NE 5 7 29.97 1015 10 16.09344 0 0
3:15 am 03:15 Clear 62 16.7 58 14.7 88 88 Calm 29.97 1015 10 16.09344 0 0
3:35 am 03:35 Clear 60 15.7 58 14.2 91 91 Calm 30 1016 10 16.09344 0 0
3:55 am 03:55 Clear 59 15.2 56 13.4 89 89 Calm 29.97 1015 10 16.09344 0 0
4:15 am 04:15 Clear 58 14.4 56 13.1 92 92 Calm 30 1016 10 16.09344 0 0
4:35 am 04:35 Clear 58 14.3 56 13.3 94 94 Calm 29.97 1015 10 16.09344 0 0
4:55 am 04:55 Clear 58 14.6 56 13.1 91 91 Calm 29.97 1015 10 16.09344 0 0
5:15 am 05:15 Clear 59 15.2 56 13.4 89 89 ESE 6 9 29.97 1015 10 16.09344 0 0
5:35 am 05:35 Clear 57 13.7 54 12.3 91 91 ESE 8 13 29.97 1015 10 16.09344 0 0
5:55 am 05:55 Clear 57 14 55 12.6 91 91 ESE 6 9 29.97 1015 10 16.09344 0 0
6:15 am 06:15 Clear 59 15 56 13.4 90 90 SE 6 9 29.97 1015 10 16.09344 0 0
6:35 am 06:35 Clear 58 14.6 55 12.8 89 89 SE 5 7 29.97 1015 10 16.09344 0 0
6:55 am 06:55 Sunny 57 14 55 12.6 91 91 SE 3 6 29.97 1015 10 16.09344 0 0
7:15 am 07:15 Sunny 59 15 56 13.5 91 91 SSE 3 6 29.97 1015 10 16.09344 0 0
7:35 am 07:35 Sunny 59 15.1 57 13.8 92 92 Calm 29.97 1015 10 16.09344 0 0
7:55 am 07:55 Sunny 61 16.3 58 14.7 90 90 Calm 29.94 1014 10 16.09344 0 0
8:15 am 08:15 Sunny 62 16.7 60 15.4 92 92 ESE 5 7 29.94 1014 10 16.09344 0 0
8:35 am 08:35 Sunny 64 18 60 15.8 87 87 SE 3 6 29.94 1014 10 16.09344 0 0
8:55 am 08:55 Sunny 66 19.1 62 16.7 86 86 SE 3 6 29.94 1014 10 16.09344 0 0
9:15 am 09:15 Sunny 69 20.6 63 17 80 80 SE 7 11 29.91 1013 10 16.09344 0 0
9:35 am 09:35 Sunny 71 21.4 64 17.7 80 80 SSE 7 11 29.91 1013 10 16.09344 0 0
9:55 am 09:55 Sunny 73 22.7 65 18.2 76 76 SE 8 13 29.91 1013 10 16.09344 0 0
10:15 am 10:15 Sunny 75 23.7 64 17.7 69 69 SSE 10 17 29.88 1012 10 16.09344 0 0
10:35 am 10:35 Sunny 76 24.2 65 18.5 71 71 SE 12 19 29.85 1011 10 16.09344 0 0
10:55 am 10:55 Sunny 77 25 65 18.5 67 67 SSE 9 15 29.85 1011 10 16.09344 0 0
11:15 am 11:15 Sunny 78 25.6 66 18.8 66 66 SSE 14 22 29.85 1011 10 16.09344 0 0
11:35 am 11:35 Sunny 79 26 65 18.6 64 64 SSE 13 20 29.85 1011 10 16.09344 0 0
11:55 am 11:55 Sunny 80 26.5 65 18.6 62 62 SSE 14 22 29.83 1010 10 16.09344 0 0
12:15 pm 12:15 Sunny 81 27 66 19.1 62 62 SSE 13 20 29.83 1010 10 16.09344 0 0
12:35 pm 12:35 Sunny 82 27.6 65 18.3 57 57 S 12 19 29.83 1010 10 16.09344 0 0
12:55 pm 12:55 Sunny 83 28.3 66 19 57 57 S 14 22 29.83 1010 10 16.09344 0 0
1:15 pm 13:15 Sunny 83 28.4 66 19 57 57 SSE 14 22 29.8 1009 10 16.09344 0 0
1:35 pm 13:35 Sunny 85 29.4 66 19 54 54 S 14 22 29.8 1009 10 16.09344 0 0
1:55 pm 13:55 Sunny 85 29.5 67 19.4 55 55 S 13 20 29.8 1009 10 16.09344 0 0
2:15 pm 14:15 Sunny 85 29.6 67 19.4 54 54 S 12 19 29.8 1009 10 16.09344 0 0
2:35 pm 14:35 Sunny 86 30.1 67 19.6 53 53 SSE 15 24 29.74 1007 10 16.09344 0 0
2:55 pm 14:55 Sunny 87 30.4 67 19.6 52 52 S 15 24 29.74 1007 10 16.09344 0 0
3:15 pm 15:15 Sunny 87 30.7 67 19.4 51 51 S 13 20 29.74 1007 10 16.09344 0 0
3:35 pm 15:35 Sunny 88 31 67 19.5 50 50 SSE 13 20 29.74 1007 10 16.09344 0 0
3:55 pm 15:55 Sunny 88 31.3 67 19.2 49 49 SSE 13 20 29.71 1006 10 16.09344 0 0
4:15 pm 16:15 Sunny 89 31.6 68 20.1 50 50 SSE 13 20 29.71 1006 10 16.09344 0 0
4:35 pm 16:35 Sunny 89 31.8 67 19.2 47 47 SSE 10 17 29.71 1006 10 16.09344 0 0
4:55 pm 16:55 Sunny 90 32 66 18.9 46 46 SSE 12 19 29.68 1005 10 16.09344 0 0
5:15 pm 17:15 Sunny 89 31.8 66 19.1 47 47 SSE 9 15 29.68 1005 10 16.09344 0 0
5:35 pm 17:35 Sunny with Nearby Thunderstorms 89 31.7 65 18.1 44 44 SSE 10 17 29.68 1005 10 16.09344 0 0
5:55 pm 17:55 Sunny with Nearby Thunderstorms 88 31.3 66 18.9 48 48 SSE 12 19 29.68 1005 10 16.09344 0 0
6:15 pm 18:15 Sunny 87 30.3 63 17.4 46 46 SSE 10 17 29.65 1004 10 16.09344 0 0
6:35 pm 18:35 Sunny 86 30.1 65 18.5 50 50 SSE 9 15 29.65 1004 10 16.09344 0 0
6:55 pm 18:55 Sunny 85 29.5 64 18 50 50 SSE 9 15 29.65 1004 10 16.09344 0 0
7:15 pm 19:15 Sunny 83 28.6 64 17.7 52 52 SSE 9 15 29.68 1005 10 16.09344 0 0
7:35 pm 19:35 Sunny 81 27.2 65 18.5 59 59 SSE 7 11 29.68 1005 10 16.09344 0 0
7:55 pm 19:55 Sunny 80 26.6 66 18.8 62 62 SSE 7 11 29.68 1005 10 16.09344 0 0
8:15 pm 20:15 Partly Cloudy 78 25.5 65 18.5 65 65 SSE 7 11 29.68 1005 10 16.09344 0 0
8:35 pm 20:35 Partly Cloudy 78 25.7 62 16.6 57 57 SSE 8 13 29.68 1005 10 16.09344 0 0
8:55 pm 20:55 Clear 75 24 64 17.5 67 67 SE 8 13 29.71 1006 10 16.09344 0 0
9:15 pm 21:15 Partly Cloudy 74 23.2 64 17.6 71 71 SE 6 9 29.71 1006 10 16.09344 0 0
9:35 pm 21:35 Partly Cloudy 73 22.5 63 17.3 73 73 SE 9 15 29.71 1006 10 16.09344 0 0
9:55 pm 21:55 Mostly Cloudy with Light Thunderstorms 74 23.3 62 16.5 66 66 Calm 29.74 1007 10 16.09344 0 0
10:15 pm 22:15 Cloudy 73 22.9 63 17.1 70 70 SSE 17 28 29.74 1007 2 3.218688 0.12 3.048
10:35 pm 22:35 Mostly Cloudy with Nearby Thunderstorms 74 23.2 63 17.1 69 69 SE 12 19 29.74 1007 10 16.09344 0.13 3.302
10:55 pm 22:55 Partly Cloudy 77 25.2 61 16 57 57 SSE 14 22 29.77 1008 10 16.09344 0.13 3.302
11:15 pm 23:15 Partly Cloudy with Nearby Thunderstorms 76 24.7 61 16 59 59 SSE 8 13 29.77 1008 10 16.09344 0 0
11:35 pm 23:35 Partly Cloudy 72 22.4 62 16.6 70 70 SE 7 11 29.77 1008 10 16.09344 0 0
11:55 pm 23:55 Clear 69 20.6 63 17.2 81 81 ESE 7 11 29.8 1009 10 16.09344 0 0

Powered by AerisWeather